#datetime,building,power
2023-07-28T00:00:00,rvs,19.23
2023-07-28T00:01:00,rvs,19.76
2023-07-28T00:02:00,rvs,20.18
2023-07-28T00:03:00,rvs,20.55
2023-07-28T00:04:00,rvs,16.66
2023-07-28T00:05:00,rvs,16.77
2023-07-28T00:06:00,rvs,12.58
2023-07-28T00:07:00,rvs,13.33
2023-07-28T00:08:00,rvs,12.84
2023-07-28T00:09:00,rvs,15.36
2023-07-28T00:10:00,rvs,14.80
2023-07-28T00:11:00,rvs,14.90
2023-07-28T00:12:00,rvs,15.15
2023-07-28T00:13:00,rvs,16.22
2023-07-28T00:14:00,rvs,19.41
2023-07-28T00:15:00,rvs,19.84
2023-07-28T00:16:00,rvs,19.30
2023-07-28T00:17:00,rvs,18.50
2023-07-28T00:18:00,rvs,19.32
2023-07-28T00:19:00,rvs,20.12
2023-07-28T00:20:00,rvs,21.36
2023-07-28T00:21:00,rvs,19.20
2023-07-28T00:22:00,rvs,19.91
2023-07-28T00:23:00,rvs,19.25
2023-07-28T00:24:00,rvs,21.97
2023-07-28T00:25:00,rvs,22.16
2023-07-28T00:26:00,rvs,23.76
2023-07-28T00:27:00,rvs,23.89
2023-07-28T00:28:00,rvs,25.88
2023-07-28T00:29:00,rvs,24.83
2023-07-28T00:30:00,rvs,24.48
2023-07-28T00:31:00,rvs,23.94
2023-07-28T00:32:00,rvs,20.81
2023-07-28T00:33:00,rvs,21.75
2023-07-28T00:34:00,rvs,22.64
2023-07-28T00:35:00,rvs,23.87
2023-07-28T00:36:00,rvs,14.83
2023-07-28T00:37:00,rvs,13.21
2023-07-28T00:38:00,rvs,13.51
2023-07-28T00:39:00,rvs,16.16
2023-07-28T00:40:00,rvs,13.70
2023-07-28T00:41:00,rvs,15.10
2023-07-28T00:42:00,rvs,16.70
2023-07-28T00:43:00,rvs,17.51
2023-07-28T00:44:00,rvs,16.24
2023-07-28T00:45:00,rvs,18.28
2023-07-28T00:46:00,rvs,19.00
2023-07-28T00:47:00,rvs,20.16
2023-07-28T00:48:00,rvs,19.38
2023-07-28T00:49:00,rvs,20.87
2023-07-28T00:50:00,rvs,20.11
2023-07-28T00:51:00,rvs,19.80
2023-07-28T00:52:00,rvs,19.03
2023-07-28T00:53:00,rvs,18.70
2023-07-28T00:54:00,rvs,20.89
2023-07-28T00:55:00,rvs,21.58
2023-07-28T00:56:00,rvs,22.68
2023-07-28T00:57:00,rvs,29.26
2023-07-28T00:58:00,rvs,29.91
2023-07-28T00:59:00,rvs,30.23
2023-07-28T01:00:00,rvs,31.87
2023-07-28T01:01:00,rvs,31.60
2023-07-28T01:02:00,rvs,28.41
2023-07-28T01:03:00,rvs,28.17
2023-07-28T01:04:00,rvs,28.82
2023-07-28T01:05:00,rvs,30.30
2023-07-28T01:06:00,rvs,30.44
2023-07-28T01:07:00,rvs,30.52
2023-07-28T01:08:00,rvs,32.11
2023-07-28T01:09:00,rvs,31.17
2023-07-28T01:10:00,rvs,26.86
2023-07-28T01:11:00,rvs,22.59
2023-07-28T01:12:00,rvs,22.99
2023-07-28T01:13:00,rvs,26.63
2023-07-28T01:14:00,rvs,21.19
2023-07-28T01:15:00,rvs,21.45
2023-07-28T01:16:00,rvs,18.61
2023-07-28T01:17:00,rvs,19.52
2023-07-28T01:18:00,rvs,20.94
2023-07-28T01:19:00,rvs,21.27
2023-07-28T01:20:00,rvs,22.77
2023-07-28T01:21:00,rvs,22.60
2023-07-28T01:22:00,rvs,22.77
2023-07-28T01:23:00,rvs,23.56
2023-07-28T01:24:00,rvs,23.02
2023-07-28T01:25:00,rvs,23.86
2023-07-28T01:26:00,rvs,23.21
2023-07-28T01:27:00,rvs,22.65
2023-07-28T01:28:00,rvs,22.23
2023-07-28T01:29:00,rvs,18.60
2023-07-28T01:30:00,rvs,18.38
2023-07-28T01:31:00,rvs,18.55
2023-07-28T01:32:00,rvs,14.71
2023-07-28T01:33:00,rvs,15.04
2023-07-28T01:34:00,rvs,15.58
2023-07-28T01:35:00,rvs,15.86
2023-07-28T01:36:00,rvs,15.95
2023-07-28T01:37:00,rvs,16.05
2023-07-28T01:38:00,rvs,12.12
2023-07-28T01:39:00,rvs,13.11
2023-07-28T01:40:00,rvs,13.13
2023-07-28T01:41:00,rvs,12.58
2023-07-28T01:42:00,rvs,14.40
2023-07-28T01:43:00,rvs,13.90
2023-07-28T01:44:00,rvs,14.18
2023-07-28T01:45:00,rvs,16.13
2023-07-28T01:46:00,rvs,18.12
2023-07-28T01:47:00,rvs,19.55
2023-07-28T01:48:00,rvs,19.63
2023-07-28T01:49:00,rvs,34.23
2023-07-28T01:50:00,rvs,32.69
2023-07-28T01:51:00,rvs,32.75
2023-07-28T01:52:00,rvs,32.79
2023-07-28T01:53:00,rvs,20.63
2023-07-28T01:54:00,rvs,21.31
2023-07-28T01:55:00,rvs,16.62
2023-07-28T01:56:00,rvs,15.55
2023-07-28T01:57:00,rvs,15.38
2023-07-28T01:58:00,rvs,15.28
2023-07-28T01:59:00,rvs,14.80
2023-07-28T02:00:00,rvs,14.75
2023-07-28T02:01:00,rvs,15.98
2023-07-28T02:02:00,rvs,16.79
2023-07-28T02:03:00,rvs,21.15
2023-07-28T02:04:00,rvs,21.01
2023-07-28T02:05:00,rvs,24.03
2023-07-28T02:06:00,rvs,26.15
2023-07-28T02:07:00,rvs,28.57
2023-07-28T02:08:00,rvs,29.87
2023-07-28T02:09:00,rvs,30.65
2023-07-28T02:10:00,rvs,30.92
2023-07-28T02:11:00,rvs,28.30
2023-07-28T02:12:00,rvs,24.64
2023-07-28T02:13:00,rvs,24.29
2023-07-28T02:14:00,rvs,22.88
2023-07-28T02:15:00,rvs,19.87
2023-07-28T02:16:00,rvs,19.45
2023-07-28T02:17:00,rvs,20.47
2023-07-28T02:18:00,rvs,16.71
2023-07-28T02:19:00,rvs,12.10
2023-07-28T02:20:00,rvs,11.39
2023-07-28T02:21:00,rvs,13.75
2023-07-28T02:22:00,rvs,13.80
2023-07-28T02:23:00,rvs,13.68
2023-07-28T02:24:00,rvs,14.33
2023-07-28T02:25:00,rvs,16.13
2023-07-28T02:26:00,rvs,16.14
2023-07-28T02:27:00,rvs,16.04
2023-07-28T02:28:00,rvs,15.87
2023-07-28T02:29:00,rvs,15.41
2023-07-28T02:30:00,rvs,15.51
2023-07-28T02:31:00,rvs,30.89
2023-07-28T02:32:00,rvs,15.92
2023-07-28T02:33:00,rvs,16.11
2023-07-28T02:34:00,rvs,18.80
2023-07-28T02:35:00,rvs,19.62
2023-07-28T02:36:00,rvs,19.93
2023-07-28T02:37:00,rvs,19.02
2023-07-28T02:38:00,rvs,19.31
2023-07-28T02:39:00,rvs,15.30
2023-07-28T02:40:00,rvs,14.98
2023-07-28T02:41:00,rvs,14.72
2023-07-28T02:42:00,rvs,14.96
2023-07-28T02:43:00,rvs,15.05
2023-07-28T02:44:00,rvs,14.53
2023-07-28T02:45:00,rvs,14.43
2023-07-28T02:46:00,rvs,14.10
2023-07-28T02:47:00,rvs,14.07
2023-07-28T02:48:00,rvs,10.66
2023-07-28T02:49:00,rvs,10.62
2023-07-28T02:50:00,rvs,11.01
2023-07-28T02:51:00,rvs,11.01
2023-07-28T02:52:00,rvs,10.96
2023-07-28T02:53:00,rvs,11.08
2023-07-28T02:54:00,rvs,11.04
2023-07-28T02:55:00,rvs,11.03
2023-07-28T02:56:00,rvs,11.04
2023-07-28T02:57:00,rvs,10.98
2023-07-28T02:58:00,rvs,10.95
2023-07-28T02:59:00,rvs,10.54
2023-07-28T03:00:00,rvs,11.18
2023-07-28T03:01:00,rvs,11.47
2023-07-28T03:02:00,rvs,12.29
2023-07-28T03:03:00,rvs,15.51
2023-07-28T03:04:00,rvs,15.90
2023-07-28T03:05:00,rvs,17.14
2023-07-28T03:06:00,rvs,17.69
2023-07-28T03:07:00,rvs,19.26
2023-07-28T03:08:00,rvs,19.91
2023-07-28T03:09:00,rvs,21.70
2023-07-28T03:10:00,rvs,20.97
2023-07-28T03:11:00,rvs,21.10
2023-07-28T03:12:00,rvs,22.68
2023-07-28T03:13:00,rvs,23.75
2023-07-28T03:14:00,rvs,24.64
2023-07-28T03:15:00,rvs,24.09
2023-07-28T03:16:00,rvs,24.11
2023-07-28T03:17:00,rvs,25.89
2023-07-28T03:18:00,rvs,26.48
2023-07-28T03:19:00,rvs,19.36
2023-07-28T03:20:00,rvs,19.96
2023-07-28T03:21:00,rvs,23.06
2023-07-28T03:22:00,rvs,24.54
2023-07-28T03:23:00,rvs,25.06
2023-07-28T03:24:00,rvs,25.69
2023-07-28T03:25:00,rvs,25.41
2023-07-28T03:26:00,rvs,25.01
2023-07-28T03:27:00,rvs,25.14
2023-07-28T03:28:00,rvs,24.44
2023-07-28T03:29:00,rvs,24.43
2023-07-28T03:30:00,rvs,25.46
2023-07-28T03:31:00,rvs,20.33
2023-07-28T03:32:00,rvs,15.79
2023-07-28T03:33:00,rvs,14.81
2023-07-28T03:34:00,rvs,15.24
2023-07-28T03:35:00,rvs,15.45
2023-07-28T03:36:00,rvs,15.40
2023-07-28T03:37:00,rvs,11.82
2023-07-28T03:38:00,rvs,12.88
2023-07-28T03:39:00,rvs,12.98
2023-07-28T03:40:00,rvs,12.32
2023-07-28T03:41:00,rvs,12.15
2023-07-28T03:42:00,rvs,13.31
2023-07-28T03:43:00,rvs,13.50
2023-07-28T03:44:00,rvs,12.69
2023-07-28T03:45:00,rvs,13.24
2023-07-28T03:46:00,rvs,10.89
2023-07-28T03:47:00,rvs,11.94
2023-07-28T03:48:00,rvs,14.26
2023-07-28T03:49:00,rvs,15.03
2023-07-28T03:50:00,rvs,14.43
2023-07-28T03:51:00,rvs,14.62
2023-07-28T03:52:00,rvs,15.58
2023-07-28T03:53:00,rvs,14.97
2023-07-28T03:54:00,rvs,15.25
2023-07-28T03:55:00,rvs,15.97
2023-07-28T03:56:00,rvs,15.90
2023-07-28T03:57:00,rvs,17.92
2023-07-28T03:58:00,rvs,17.66
2023-07-28T03:59:00,rvs,17.71
2023-07-28T04:00:00,rvs,20.25
2023-07-28T04:01:00,rvs,17.25
2023-07-28T04:02:00,rvs,17.15
2023-07-28T04:03:00,rvs,17.86
2023-07-28T04:04:00,rvs,19.75
2023-07-28T04:05:00,rvs,20.77
2023-07-28T04:06:00,rvs,20.97
2023-07-28T04:07:00,rvs,19.41
2023-07-28T04:08:00,rvs,19.55
2023-07-28T04:09:00,rvs,19.36
2023-07-28T04:10:00,rvs,19.23
2023-07-28T04:11:00,rvs,20.11
2023-07-28T04:12:00,rvs,20.37
2023-07-28T04:13:00,rvs,21.26
2023-07-28T04:14:00,rvs,19.71
2023-07-28T04:15:00,rvs,19.13
2023-07-28T04:16:00,rvs,19.11
2023-07-28T04:17:00,rvs,19.79
2023-07-28T04:18:00,rvs,20.39
2023-07-28T04:19:00,rvs,16.90
2023-07-28T04:20:00,rvs,16.84
2023-07-28T04:21:00,rvs,16.64
2023-07-28T04:22:00,rvs,15.39
2023-07-28T04:23:00,rvs,15.63
2023-07-28T04:24:00,rvs,15.33
2023-07-28T04:25:00,rvs,15.24
2023-07-28T04:26:00,rvs,14.96
2023-07-28T04:27:00,rvs,16.01
2023-07-28T04:28:00,rvs,11.80
2023-07-28T04:29:00,rvs,11.97
2023-07-28T04:30:00,rvs,11.08
2023-07-28T04:31:00,rvs,26.19
2023-07-28T04:32:00,rvs,27.57
2023-07-28T04:33:00,rvs,29.50
2023-07-28T04:34:00,rvs,30.80
2023-07-28T04:35:00,rvs,19.50
2023-07-28T04:36:00,rvs,20.51
2023-07-28T04:37:00,rvs,19.90
2023-07-28T04:38:00,rvs,20.02
2023-07-28T04:39:00,rvs,22.87
2023-07-28T04:40:00,rvs,22.85
2023-07-28T04:41:00,rvs,22.91
2023-07-28T04:42:00,rvs,25.66
2023-07-28T04:43:00,rvs,21.77
2023-07-28T04:44:00,rvs,22.27
2023-07-28T04:45:00,rvs,21.81
2023-07-28T04:46:00,rvs,21.12
2023-07-28T04:47:00,rvs,20.99
2023-07-28T04:48:00,rvs,24.32
2023-07-28T04:49:00,rvs,20.28
2023-07-28T04:50:00,rvs,18.92
2023-07-28T04:51:00,rvs,19.28
2023-07-28T04:52:00,rvs,19.30
2023-07-28T04:53:00,rvs,19.74
2023-07-28T04:54:00,rvs,14.84
2023-07-28T04:55:00,rvs,14.34
2023-07-28T04:56:00,rvs,14.39
2023-07-28T04:57:00,rvs,15.48
2023-07-28T04:58:00,rvs,15.18
2023-07-28T04:59:00,rvs,15.20
2023-07-28T05:00:00,rvs,13.99
2023-07-28T05:01:00,rvs,10.75
2023-07-28T05:02:00,rvs,11.09
2023-07-28T05:03:00,rvs,11.13
2023-07-28T05:04:00,rvs,11.07
2023-07-28T05:05:00,rvs,11.85
2023-07-28T05:06:00,rvs,14.21
2023-07-28T05:07:00,rvs,14.74
2023-07-28T05:08:00,rvs,13.79
2023-07-28T05:09:00,rvs,14.29
2023-07-28T05:10:00,rvs,14.80
2023-07-28T05:11:00,rvs,17.31
2023-07-28T05:12:00,rvs,17.64
2023-07-28T05:13:00,rvs,17.94
2023-07-28T05:14:00,rvs,18.01
2023-07-28T05:15:00,rvs,18.73
2023-07-28T05:16:00,rvs,19.45
2023-07-28T05:17:00,rvs,19.51
2023-07-28T05:18:00,rvs,19.35
2023-07-28T05:19:00,rvs,19.05
2023-07-28T05:20:00,rvs,19.26
2023-07-28T05:21:00,rvs,19.15
2023-07-28T05:22:00,rvs,19.49
2023-07-28T05:23:00,rvs,19.86
2023-07-28T05:24:00,rvs,23.13
2023-07-28T05:25:00,rvs,18.81
2023-07-28T05:26:00,rvs,19.28
2023-07-28T05:27:00,rvs,19.07
2023-07-28T05:28:00,rvs,16.52
2023-07-28T05:29:00,rvs,16.34
2023-07-28T05:30:00,rvs,15.81
2023-07-28T05:31:00,rvs,15.88
2023-07-28T05:32:00,rvs,14.48
2023-07-28T05:33:00,rvs,14.96
2023-07-28T05:34:00,rvs,14.80
2023-07-28T05:35:00,rvs,14.44
2023-07-28T05:36:00,rvs,14.80
2023-07-28T05:37:00,rvs,14.82
2023-07-28T05:38:00,rvs,14.75
2023-07-28T05:39:00,rvs,11.06
2023-07-28T05:40:00,rvs,11.56
2023-07-28T05:41:00,rvs,11.54
2023-07-28T05:42:00,rvs,11.49
2023-07-28T05:43:00,rvs,10.94
2023-07-28T05:44:00,rvs,10.92
2023-07-28T05:45:00,rvs,10.87
2023-07-28T05:46:00,rvs,10.93
2023-07-28T05:47:00,rvs,10.87
2023-07-28T05:48:00,rvs,11.55
2023-07-28T05:49:00,rvs,11.65
2023-07-28T05:50:00,rvs,11.70
2023-07-28T05:51:00,rvs,10.73
2023-07-28T05:52:00,rvs,10.75
2023-07-28T05:53:00,rvs,11.31
2023-07-28T05:54:00,rvs,13.38
2023-07-28T05:55:00,rvs,13.88
2023-07-28T05:56:00,rvs,14.63
2023-07-28T05:57:00,rvs,15.50
2023-07-28T05:58:00,rvs,15.87
2023-07-28T05:59:00,rvs,15.75
2023-07-28T06:00:00,rvs,15.73
2023-07-28T06:01:00,rvs,15.73
2023-07-28T06:02:00,rvs,20.30
2023-07-28T06:03:00,rvs,20.85
2023-07-28T06:04:00,rvs,21.25
2023-07-28T06:05:00,rvs,22.10
2023-07-28T06:06:00,rvs,24.16
2023-07-28T06:07:00,rvs,23.84
2023-07-28T06:08:00,rvs,23.65
2023-07-28T06:09:00,rvs,18.50
2023-07-28T06:10:00,rvs,18.67
2023-07-28T06:11:00,rvs,19.07
2023-07-28T06:12:00,rvs,18.60
2023-07-28T06:13:00,rvs,19.31
2023-07-28T06:14:00,rvs,21.19
2023-07-28T06:15:00,rvs,17.07
2023-07-28T06:16:00,rvs,17.96
2023-07-28T06:17:00,rvs,17.99
2023-07-28T06:18:00,rvs,14.02
2023-07-28T06:19:00,rvs,14.47
2023-07-28T06:20:00,rvs,15.86
2023-07-28T06:21:00,rvs,15.72
2023-07-28T06:22:00,rvs,15.85
2023-07-28T06:23:00,rvs,15.37
2023-07-28T06:24:00,rvs,15.36
2023-07-28T06:25:00,rvs,10.84
2023-07-28T06:26:00,rvs,10.81
2023-07-28T06:27:00,rvs,11.22
2023-07-28T06:28:00,rvs,11.67
2023-07-28T06:29:00,rvs,11.90
2023-07-28T06:30:00,rvs,11.92
2023-07-28T06:31:00,rvs,11.88
2023-07-28T06:32:00,rvs,11.89
2023-07-28T06:33:00,rvs,15.62
2023-07-28T06:34:00,rvs,16.04
2023-07-28T06:35:00,rvs,15.67
2023-07-28T06:36:00,rvs,15.05
2023-07-28T06:37:00,rvs,18.37
2023-07-28T06:38:00,rvs,19.10
2023-07-28T06:39:00,rvs,21.34
2023-07-28T06:40:00,rvs,20.38
2023-07-28T06:41:00,rvs,21.91
2023-07-28T06:42:00,rvs,25.14
2023-07-28T06:43:00,rvs,27.91
2023-07-28T06:44:00,rvs,28.09
2023-07-28T06:45:00,rvs,28.21
2023-07-28T06:46:00,rvs,25.64
2023-07-28T06:47:00,rvs,25.01
2023-07-28T06:48:00,rvs,26.30
2023-07-28T06:49:00,rvs,21.75
2023-07-28T06:50:00,rvs,21.78
2023-07-28T06:51:00,rvs,22.63
2023-07-28T06:52:00,rvs,20.35
2023-07-28T06:53:00,rvs,16.96
2023-07-28T06:54:00,rvs,16.66
2023-07-28T06:55:00,rvs,18.89
2023-07-28T06:56:00,rvs,18.98
2023-07-28T06:57:00,rvs,14.70
2023-07-28T06:58:00,rvs,15.72
2023-07-28T06:59:00,rvs,16.35
2023-07-28T07:00:00,rvs,15.49
2023-07-28T07:01:00,rvs,15.07
2023-07-28T07:02:00,rvs,15.15
2023-07-28T07:03:00,rvs,16.55
2023-07-28T07:04:00,rvs,16.26
2023-07-28T07:05:00,rvs,16.10
2023-07-28T07:06:00,rvs,15.58
2023-07-28T07:07:00,rvs,16.46
2023-07-28T07:08:00,rvs,18.10
2023-07-28T07:09:00,rvs,17.81
2023-07-28T07:10:00,rvs,18.28
2023-07-28T07:11:00,rvs,15.42
2023-07-28T07:12:00,rvs,16.28
2023-07-28T07:13:00,rvs,16.24
2023-07-28T07:14:00,rvs,16.33
2023-07-28T07:15:00,rvs,15.39
2023-07-28T07:16:00,rvs,15.44
2023-07-28T07:17:00,rvs,30.35
2023-07-28T07:18:00,rvs,29.59
2023-07-28T07:19:00,rvs,28.94
2023-07-28T07:20:00,rvs,28.20
2023-07-28T07:21:00,rvs,16.45
2023-07-28T07:22:00,rvs,16.21
2023-07-28T07:23:00,rvs,15.98
2023-07-28T07:24:00,rvs,14.82
2023-07-28T07:25:00,rvs,17.83
2023-07-28T07:26:00,rvs,14.86
2023-07-28T07:27:00,rvs,15.31
2023-07-28T07:28:00,rvs,16.39
2023-07-28T07:29:00,rvs,16.06
2023-07-28T07:30:00,rvs,17.52
2023-07-28T07:31:00,rvs,17.65
2023-07-28T07:32:00,rvs,21.58
2023-07-28T07:33:00,rvs,21.58
2023-07-28T07:34:00,rvs,23.86
2023-07-28T07:35:00,rvs,23.84
2023-07-28T07:36:00,rvs,25.17
2023-07-28T07:37:00,rvs,24.90
2023-07-28T07:38:00,rvs,25.97
2023-07-28T07:39:00,rvs,26.54
2023-07-28T07:40:00,rvs,20.93
2023-07-28T07:41:00,rvs,23.86
2023-07-28T07:42:00,rvs,22.61
2023-07-28T07:43:00,rvs,24.19
2023-07-28T07:44:00,rvs,28.58
2023-07-28T07:45:00,rvs,30.13
2023-07-28T07:46:00,rvs,31.89
2023-07-28T07:47:00,rvs,32.52
2023-07-28T07:48:00,rvs,32.99
2023-07-28T07:49:00,rvs,31.51
2023-07-28T07:50:00,rvs,31.46
2023-07-28T07:51:00,rvs,30.92
2023-07-28T07:52:00,rvs,32.32
2023-07-28T07:53:00,rvs,33.59
2023-07-28T07:54:00,rvs,32.03
2023-07-28T07:55:00,rvs,32.80
2023-07-28T07:56:00,rvs,29.71
2023-07-28T07:57:00,rvs,28.45
2023-07-28T07:58:00,rvs,28.28
2023-07-28T07:59:00,rvs,28.81
2023-07-28T08:00:00,rvs,25.82
2023-07-28T08:01:00,rvs,26.58
2023-07-28T08:02:00,rvs,25.06
2023-07-28T08:03:00,rvs,22.05
2023-07-28T08:04:00,rvs,22.95
2023-07-28T08:05:00,rvs,23.12
2023-07-28T08:06:00,rvs,23.26
2023-07-28T08:07:00,rvs,23.60
2023-07-28T08:08:00,rvs,24.87
2023-07-28T08:09:00,rvs,24.40
2023-07-28T08:10:00,rvs,24.88
2023-07-28T08:11:00,rvs,24.77
2023-07-28T08:12:00,rvs,24.87
2023-07-28T08:13:00,rvs,30.38
2023-07-28T08:14:00,rvs,32.31
2023-07-28T08:15:00,rvs,33.19
2023-07-28T08:16:00,rvs,31.13
2023-07-28T08:17:00,rvs,25.79
2023-07-28T08:18:00,rvs,22.34
2023-07-28T08:19:00,rvs,21.76
2023-07-28T08:20:00,rvs,20.75
2023-07-28T08:21:00,rvs,20.73
2023-07-28T08:22:00,rvs,19.89
2023-07-28T08:23:00,rvs,20.15
2023-07-28T08:24:00,rvs,18.93
2023-07-28T08:25:00,rvs,20.23
2023-07-28T08:26:00,rvs,20.19
2023-07-28T08:27:00,rvs,20.70
2023-07-28T08:28:00,rvs,20.21
2023-07-28T08:29:00,rvs,23.49
2023-07-28T08:30:00,rvs,25.14
2023-07-28T08:31:00,rvs,24.30
2023-07-28T08:32:00,rvs,25.15
2023-07-28T08:33:00,rvs,25.58
2023-07-28T08:34:00,rvs,24.57
2023-07-28T08:35:00,rvs,22.30
2023-07-28T08:36:00,rvs,23.55
2023-07-28T08:37:00,rvs,23.06
2023-07-28T08:38:00,rvs,23.64
2023-07-28T08:39:00,rvs,24.21
2023-07-28T08:40:00,rvs,23.45
2023-07-28T08:41:00,rvs,25.94
2023-07-28T08:42:00,rvs,25.02
2023-07-28T08:43:00,rvs,24.90
2023-07-28T08:44:00,rvs,24.78
2023-07-28T08:45:00,rvs,24.56
2023-07-28T08:46:00,rvs,25.27
2023-07-28T08:47:00,rvs,27.90
2023-07-28T08:48:00,rvs,28.19
2023-07-28T08:49:00,rvs,28.74
2023-07-28T08:50:00,rvs,29.78
2023-07-28T08:51:00,rvs,28.28
2023-07-28T08:52:00,rvs,28.93
2023-07-28T08:53:00,rvs,29.13
2023-07-28T08:54:00,rvs,27.69
2023-07-28T08:55:00,rvs,27.00
2023-07-28T08:56:00,rvs,27.58
2023-07-28T08:57:00,rvs,27.60
2023-07-28T08:58:00,rvs,27.39
2023-07-28T08:59:00,rvs,27.02
2023-07-28T09:00:00,rvs,27.06
2023-07-28T09:01:00,rvs,26.91
2023-07-28T09:02:00,rvs,23.88
2023-07-28T09:03:00,rvs,23.96
2023-07-28T09:04:00,rvs,19.73
2023-07-28T09:05:00,rvs,16.01
2023-07-28T09:06:00,rvs,16.03
2023-07-28T09:07:00,rvs,16.99
2023-07-28T09:08:00,rvs,16.91
2023-07-28T09:09:00,rvs,17.82
2023-07-28T09:10:00,rvs,17.76
2023-07-28T09:11:00,rvs,16.99
2023-07-28T09:12:00,rvs,16.46
2023-07-28T09:13:00,rvs,19.62
2023-07-28T09:14:00,rvs,16.68
2023-07-28T09:15:00,rvs,12.63
2023-07-28T09:16:00,rvs,15.93
2023-07-28T09:17:00,rvs,17.29
2023-07-28T09:18:00,rvs,17.67
2023-07-28T09:19:00,rvs,18.27
2023-07-28T09:20:00,rvs,20.83
2023-07-28T09:21:00,rvs,20.78
2023-07-28T09:22:00,rvs,20.23
2023-07-28T09:23:00,rvs,20.78
2023-07-28T09:24:00,rvs,26.02
2023-07-28T09:25:00,rvs,28.34
2023-07-28T09:26:00,rvs,28.66
2023-07-28T09:27:00,rvs,46.29
2023-07-28T09:28:00,rvs,29.77
2023-07-28T09:29:00,rvs,29.46
2023-07-28T09:30:00,rvs,27.69
2023-07-28T09:31:00,rvs,28.65
2023-07-28T09:32:00,rvs,28.31
2023-07-28T09:33:00,rvs,29.93
2023-07-28T09:34:00,rvs,29.04
2023-07-28T09:35:00,rvs,30.22
2023-07-28T09:36:00,rvs,30.98
2023-07-28T09:37:00,rvs,32.71
2023-07-28T09:38:00,rvs,45.94
2023-07-28T09:39:00,rvs,47.54
2023-07-28T09:40:00,rvs,42.35
2023-07-28T09:41:00,rvs,46.68
2023-07-28T09:42:00,rvs,48.70
2023-07-28T09:43:00,rvs,33.72
2023-07-28T09:44:00,rvs,38.88
2023-07-28T09:45:00,rvs,33.87
2023-07-28T09:46:00,rvs,33.40
2023-07-28T09:47:00,rvs,36.66
2023-07-28T09:48:00,rvs,32.53
2023-07-28T09:49:00,rvs,36.85
2023-07-28T09:50:00,rvs,38.45
2023-07-28T09:51:00,rvs,37.73
2023-07-28T09:52:00,rvs,41.13
2023-07-28T09:53:00,rvs,36.45
2023-07-28T09:54:00,rvs,33.05
2023-07-28T09:55:00,rvs,34.61
2023-07-28T09:56:00,rvs,28.04
2023-07-28T09:57:00,rvs,32.60
2023-07-28T09:58:00,rvs,24.94
2023-07-28T09:59:00,rvs,23.87
2023-07-28T10:00:00,rvs,28.40
2023-07-28T10:01:00,rvs,20.66
2023-07-28T10:02:00,rvs,20.61
2023-07-28T10:03:00,rvs,25.69
2023-07-28T10:04:00,rvs,24.32
2023-07-28T10:05:00,rvs,25.33
2023-07-28T10:06:00,rvs,24.40
2023-07-28T10:07:00,rvs,25.58
2023-07-28T10:08:00,rvs,21.88
2023-07-28T10:09:00,rvs,23.20
2023-07-28T10:10:00,rvs,17.23
2023-07-28T10:11:00,rvs,15.33
2023-07-28T10:12:00,rvs,14.11
2023-07-28T10:13:00,rvs,16.93
2023-07-28T10:14:00,rvs,18.02
2023-07-28T10:15:00,rvs,19.30
2023-07-28T10:16:00,rvs,20.15
2023-07-28T10:17:00,rvs,20.92
2023-07-28T10:18:00,rvs,18.89
2023-07-28T10:19:00,rvs,18.74
2023-07-28T10:20:00,rvs,18.86
2023-07-28T10:21:00,rvs,19.78
2023-07-28T10:22:00,rvs,19.60
2023-07-28T10:23:00,rvs,19.52
2023-07-28T10:24:00,rvs,16.23
2023-07-28T10:25:00,rvs,16.13
2023-07-28T10:26:00,rvs,16.10
2023-07-28T10:27:00,rvs,17.64
2023-07-28T10:28:00,rvs,17.38
2023-07-28T10:29:00,rvs,18.31
2023-07-28T10:30:00,rvs,20.78
2023-07-28T10:31:00,rvs,20.05
2023-07-28T10:32:00,rvs,16.81
2023-07-28T10:33:00,rvs,17.17
2023-07-28T10:34:00,rvs,17.78
2023-07-28T10:35:00,rvs,19.67
2023-07-28T10:36:00,rvs,20.98
2023-07-28T10:37:00,rvs,21.07
2023-07-28T10:38:00,rvs,21.12
2023-07-28T10:39:00,rvs,20.96
2023-07-28T10:40:00,rvs,21.40
2023-07-28T10:41:00,rvs,20.84
2023-07-28T10:42:00,rvs,21.05
2023-07-28T10:43:00,rvs,24.00
2023-07-28T10:44:00,rvs,25.82
2023-07-28T10:45:00,rvs,24.99
2023-07-28T10:46:00,rvs,26.70
2023-07-28T10:47:00,rvs,28.59
2023-07-28T10:48:00,rvs,24.56
2023-07-28T10:49:00,rvs,20.18
2023-07-28T10:50:00,rvs,26.36
2023-07-28T10:51:00,rvs,26.70
2023-07-28T10:52:00,rvs,31.14
2023-07-28T10:53:00,rvs,31.96
2023-07-28T10:54:00,rvs,34.40
2023-07-28T10:55:00,rvs,34.27
2023-07-28T10:56:00,rvs,34.49
2023-07-28T10:57:00,rvs,33.98
2023-07-28T10:58:00,rvs,32.80
2023-07-28T10:59:00,rvs,32.16
2023-07-28T11:00:00,rvs,32.32
2023-07-28T11:01:00,rvs,33.68
2023-07-28T11:02:00,rvs,34.02
2023-07-28T11:03:00,rvs,34.12
2023-07-28T11:04:00,rvs,31.81
2023-07-28T11:05:00,rvs,31.38
2023-07-28T11:06:00,rvs,27.00
2023-07-28T11:07:00,rvs,25.97
2023-07-28T11:08:00,rvs,21.80
2023-07-28T11:09:00,rvs,25.25
2023-07-28T11:10:00,rvs,27.05
2023-07-28T11:11:00,rvs,27.66
2023-07-28T11:12:00,rvs,27.88
2023-07-28T11:13:00,rvs,27.23
2023-07-28T11:14:00,rvs,29.90
2023-07-28T11:15:00,rvs,30.69
2023-07-28T11:16:00,rvs,30.40
2023-07-28T11:17:00,rvs,28.85
2023-07-28T11:18:00,rvs,29.09
2023-07-28T11:19:00,rvs,29.12
2023-07-28T11:20:00,rvs,30.13
2023-07-28T11:21:00,rvs,30.19
2023-07-28T11:22:00,rvs,43.95
2023-07-28T11:23:00,rvs,26.25
2023-07-28T11:24:00,rvs,26.64
2023-07-28T11:25:00,rvs,29.91
2023-07-28T11:26:00,rvs,30.99
2023-07-28T11:27:00,rvs,29.40
2023-07-28T11:28:00,rvs,30.52
2023-07-28T11:29:00,rvs,31.35
2023-07-28T11:30:00,rvs,30.45
2023-07-28T11:31:00,rvs,26.20
2023-07-28T11:32:00,rvs,26.65
2023-07-28T11:33:00,rvs,28.21
2023-07-28T11:34:00,rvs,28.18
2023-07-28T11:35:00,rvs,28.25
2023-07-28T11:36:00,rvs,22.87
2023-07-28T11:37:00,rvs,20.92
2023-07-28T11:38:00,rvs,20.48
2023-07-28T11:39:00,rvs,20.26
2023-07-28T11:40:00,rvs,23.61
2023-07-28T11:41:00,rvs,24.39
2023-07-28T11:42:00,rvs,25.39
2023-07-28T11:43:00,rvs,27.60
2023-07-28T11:44:00,rvs,26.90
2023-07-28T11:45:00,rvs,27.20
2023-07-28T11:46:00,rvs,25.52
2023-07-28T11:47:00,rvs,25.57
2023-07-28T11:48:00,rvs,25.78
2023-07-28T11:49:00,rvs,23.08
2023-07-28T11:50:00,rvs,25.04
2023-07-28T11:51:00,rvs,26.06
2023-07-28T11:52:00,rvs,26.89
2023-07-28T11:53:00,rvs,30.88
2023-07-28T11:54:00,rvs,50.81
2023-07-28T11:55:00,rvs,31.51
2023-07-28T11:56:00,rvs,35.66
2023-07-28T11:57:00,rvs,35.32
2023-07-28T11:58:00,rvs,35.75
2023-07-28T11:59:00,rvs,34.62
2023-07-28T12:00:00,rvs,35.28
2023-07-28T12:01:00,rvs,35.55
2023-07-28T12:02:00,rvs,30.72
2023-07-28T12:03:00,rvs,29.95
2023-07-28T12:04:00,rvs,25.62
2023-07-28T12:05:00,rvs,25.09
2023-07-28T12:06:00,rvs,25.74
2023-07-28T12:07:00,rvs,24.85
2023-07-28T12:08:00,rvs,32.67
2023-07-28T12:09:00,rvs,36.91
2023-07-28T12:10:00,rvs,35.45
2023-07-28T12:11:00,rvs,39.65
2023-07-28T12:12:00,rvs,43.82
2023-07-28T12:13:00,rvs,45.92
2023-07-28T12:14:00,rvs,50.98
2023-07-28T12:15:00,rvs,49.92
2023-07-28T12:16:00,rvs,44.97
2023-07-28T12:17:00,rvs,40.30
2023-07-28T12:18:00,rvs,35.31
2023-07-28T12:19:00,rvs,35.73
2023-07-28T12:20:00,rvs,41.59
2023-07-28T12:21:00,rvs,40.01
2023-07-28T12:22:00,rvs,42.17
2023-07-28T12:23:00,rvs,38.30
2023-07-28T12:24:00,rvs,38.85
2023-07-28T12:25:00,rvs,41.33
2023-07-28T12:26:00,rvs,40.72
2023-07-28T12:27:00,rvs,39.51
2023-07-28T12:28:00,rvs,39.53
2023-07-28T12:29:00,rvs,35.55
2023-07-28T12:30:00,rvs,31.82
2023-07-28T12:31:00,rvs,32.14
2023-07-28T12:32:00,rvs,32.56
2023-07-28T12:33:00,rvs,35.90
2023-07-28T12:34:00,rvs,45.24
2023-07-28T12:35:00,rvs,49.09
2023-07-28T12:36:00,rvs,52.09
2023-07-28T12:37:00,rvs,66.66
2023-07-28T12:38:00,rvs,46.42
2023-07-28T12:39:00,rvs,45.76
2023-07-28T12:40:00,rvs,43.33
2023-07-28T12:41:00,rvs,37.15
2023-07-28T12:42:00,rvs,34.93
2023-07-28T12:43:00,rvs,36.59
2023-07-28T12:44:00,rvs,45.55
2023-07-28T12:45:00,rvs,45.77
2023-07-28T12:46:00,rvs,45.26
2023-07-28T12:47:00,rvs,29.06
2023-07-28T12:48:00,rvs,37.05
2023-07-28T12:49:00,rvs,33.56
2023-07-28T12:50:00,rvs,29.86
2023-07-28T12:51:00,rvs,33.86
2023-07-28T12:52:00,rvs,33.99
2023-07-28T12:53:00,rvs,34.39
2023-07-28T12:54:00,rvs,30.36
2023-07-28T12:55:00,rvs,35.72
2023-07-28T12:56:00,rvs,36.44
2023-07-28T12:57:00,rvs,35.49
2023-07-28T12:58:00,rvs,41.14
2023-07-28T12:59:00,rvs,38.60
2023-07-28T13:00:00,rvs,38.59
2023-07-28T13:01:00,rvs,38.10
2023-07-28T13:02:00,rvs,38.07
2023-07-28T13:03:00,rvs,41.31
2023-07-28T13:04:00,rvs,34.32
2023-07-28T13:05:00,rvs,34.26
2023-07-28T13:06:00,rvs,38.10
2023-07-28T13:07:00,rvs,31.21
2023-07-28T13:08:00,rvs,30.60
2023-07-28T13:09:00,rvs,29.78
2023-07-28T13:10:00,rvs,30.80
2023-07-28T13:11:00,rvs,31.24
2023-07-28T13:12:00,rvs,34.61
2023-07-28T13:13:00,rvs,32.85
2023-07-28T13:14:00,rvs,27.62
2023-07-28T13:15:00,rvs,27.79
2023-07-28T13:16:00,rvs,31.47
2023-07-28T13:17:00,rvs,33.27
2023-07-28T13:18:00,rvs,32.62